Airfield :
LOGIN :

Register | Disclaimer

   EN    FR    IT 

 










Legend :    VFR   Marginal VFR   IFR   Intensive IFR   Very Intensive IFR
Visi :
Ceiling :
>= 8 km
>= 3000ft
5 to 8 km
1000 to 3000 ft
1500m to 5 km
500 to 1000 ft
800 to 1500m
200 to 500 ft
< 800m
< 200 ft
Symbols :   Thunderstorms  Fog  Heavy snow  Heavy precipitations  Wind > 20 kt
SIGMETs :     Misc.  Thunderstorms  Icing  Turbulence  Mountain Waves  Volcanic Ashes






- Airport Elevation : 586 ft


LIMN - Cameri Air Force Base

CURRENT METAR :
  • 071555Z 34009KT CAVOK 23/03 Q1008 RMK SCT FEW080 SCT100 VIS MIN 9999 BLU

EXPIRED METARs :
  • 071455Z 23003KT 180V290 CAVOK 22/07 Q1007 RMK SCT FEW080 SCT100 VIS MIN 9999 BLU
  • 071355Z 26006KT 210V300 9999 FEW030 23/08 Q1007 RMK SCT SCT080 VIS MIN 9999 BLU

TAF TAF LIMN
Valid from the 07 at 15:00 until the 08 at 00:00 UTC


071400Z 0715/0724 02010KT 9999 SCT030



MET'MAP, your aeronautical weather chart ! - Copyright ORBIFLY December 2007 - Disclaimer

ORBIFLY MET'MAP TEAM :

Programming & Development : Alexandra Zaïnal
Concept & original design : Baudouin d'Aumeries
Assistance for programming : Marc-Olivier Méhu
Technical & hardware support : Manuel Goepfert

Contact : metmap@orbifly.com




SOURCES & CREDITS :

   NOAA